Location: Cheching
(60.0667°N, 164.2167°W)
Time: 20:01:27
(UTC+00:00)

DX 1 - Pass Details

Date: 31 January 2021
Orbit: 618 x 631 km, 98.5° (Epoch: 26 February)

Event Time Altitude Azimuth Distance (km) Brightness Sun altitude
Exits shadow 05:32:25 35° 100° (E) 1,003 ? -17.7°
Drops below altitude 10° 05:36:17 10° 164° (SSE) 1,985 ? -18.2°
Sets 05:38:37 0° 173° (S) 2,887 ? -18.5°
